1st Responders/1st Detectors/Storm Spotters Weather Summary for Barren County, KY

Forecast Maps


Reg. NEXRAD Animation


National Fire Danger: Day 1 & 2 Map

Current NWS Watch/Warnings

SPC Convective Day 1 Outlook


Day 2 Outlook

(Click images to enlarge|Page will refresh every 5 minutes)
UK Ag. Weather Center Desktop Severe Weather Service[HERE]
Barren County, KY Hazardous Weather Outlook Webcast
(9 AM to 9 PM Mon-Fri)
[Fast]
[Dial-up]


UKAWC 1st Detectors/1st Responders Precision Weather Forecast For BARREN County, Kentucky
(based on the NWS County Digital Forecast)

ISSUED AT 18:00 UTC ON TUESDAY NOV 21 2017
DAY TUESDAY
CDT 3HR 2P 3P 4P 5P 6P
MAX/MIN -- -- -- -- 59°
TEMP 59° 59° 58° 56° 52°
SKY COVER 17% 20% 22% 25% 27%
Clouds
DEW PT 36° 36° 36° 36° 36°
RH 40% 40% 43% 46% 51%
POP 12HR -- -- -- -- --
RAIN/SNOW (liq.equ) -- -- -- -- --
SNOWFALL -- -- -- -- --
WIND SPEED(MPH) 13 9 8 7 6
WIND Gust(MPH) 21 18 15 9 8
WIND DIR SW SW SW SW SW
DEW -- -- -- -- --
HeatIndex 59 59 58 56 52
WIND CHILL -- -- -- -- --
SPRAY COND
DRY COND
LIVESTOCK COLDSTRESS



DAY WEDNESDAY THURSDAY FRIDAY SATURDAY SUNDAY MONDAY
CDT 6HR 7P 8P 9P 10P 11P MIDN 1A 2A 3A 4A 5A 6A 7A 8A 9A 10A 11A NOON 1P 2P 3P 4P 5P 6P 7P 8P 9P 10P 11P MIDN 1A 4A 7A 10A 1P 4P 7P 1A 7A 1P 7P 1A 7A 1P 7P 1A 7A 1P 7P 1A 7A 1P 7P
MAX/MIN -- -- -- -- -- -- -- -- -- -- -- -- 32° -- -- -- -- -- -- -- -- -- -- 45° -- -- -- -- -- -- -- -- 27° -- -- 49° -- -- 29° 56° -- -- 40° 58° -- -- 31° 45° -- -- 25° 45° --
TEMP 49° 47° 47° 45° 45° 43° 41° 40° 38° 36° 34° 32° 32° 34° 36° 38° 40° 41° 43° 45° 45° 45° 43° 38° 36° 34° 32° 31° 31° 29° 29° 27° 27° 38° 47° 47° 40° 32° 31° 54° 45° 43° 41° 58° 47° 36° 31° 45° 36° 29° 27° 45° 36°
SKY COVER 30% 31% 32% 34% 35% 36% 37% 33% 30% 26% 25% 23% 22% 22% 22% 22% 19% 14% 11% 9% 7% 5% 5% 3% 3% 3% 5% 6% 8% 11% 13% 19% 32% 18% 14% 12% 17% 4% 2% 2% 9% 39% 51% 19% 14% 10% 12% 14% 12% 8% 9% 16% 12%
Clouds
DEW PT 36° 36° 36° 36° 34° 34° 34° 34° 32° 31° 29° 29° 27° 27° 25° 25° 25° 27° 27° 27° 25° 25° 25° 25° 25° 25° 27° 27° 27° 25° 25° 25° 25° 27° 27° 27° 29° 27° 27° 31° 32° 34° 36° 40° 34° 31° 27° 27° 25° 22° 22° 25° 27°
RH 58% 62% 65% 68% 67% 73% 75% 78% 82% 85% 84% 84% 78% 75% 66% 61% 56% 55% 51% 48% 45% 47% 50% 59% 64% 68% 78% 81% 84% 84% 88% 88% 91% 64% 45% 45% 64% 78% 81% 41% 59% 67% 82% 51% 62% 81% 84% 49% 66% 77% 81% 47% 66%
POP 12HR 1% -- -- -- -- -- -- -- -- -- -- -- 0% -- -- -- -- -- -- -- -- -- -- -- 3% -- -- -- -- -- -- -- 1% -- -- -- 0% -- 1% -- 1% -- 4% -- 3% -- 2% -- 1% -- 1% -- 1%
RAIN/SNOW (liq.equ) 0.00in -- -- -- -- -- 0.00in -- -- -- -- -- 0.00in -- -- -- -- -- 0.00in -- -- -- -- -- 0.00in -- -- -- -- -- 0.00in -- 0.00in -- 0.00in -- 0.00in -- -- -- -- -- -- -- -- -- -- -- -- -- -- -- --
SNOWFALL 0in -- -- -- -- -- 0in -- -- -- -- -- 0in -- -- -- -- -- 0in -- -- -- -- -- 0in -- -- -- -- -- 0in -- 0in -- 0in -- 0in -- -- -- -- -- -- -- -- -- -- -- -- -- -- -- --
WIND SPEED(MPH) 6 5 5 5 5 6 7 7 7 7 7 7 7 7 8 8 8 7 7 7 7 7 6 6 5 5 5 5 5 2 2 1 0 1 2 5 1 1 1 6 6 8 7 9 7 7 6 8 6 5 2 6 5
WIND DIR SW W W W W NW NW NW N N N N N N N N N N N N N N N N N N N N N NE NE NE NE NE NW NW W SW S SW S SW SW W NW NW NW NW NW N N SW SW
HeatIndex 49 47 47 45 42 39 37 35 32 30 27 26 26 27 29 31 34 36 39 40 45 40 39 34 33 31 28 27 26 26 25 27 27 38 47 47 40 32 31 54 45 38 37 58 47 31 26 40 31 23 23 41 33
WIND CHILL -- -- -- 43° 43° 39° 36° 35° 33° 30° 28° 26° 26° 28° 30° 32° 35° 36° 39° 41° 41° 41° 39° 34° 32° 30° 28° 26° 26° -- -- -- -- -- -- -- -- -- -- -- 42° 38° 36° -- -- 30° 25° 41° 31° 24° -- 42° 32°
SPRAY COND
DRY COND
LIVESTOCK COLDSTRESS

Click on individual weather variable above in left-hand column (ie., TEMP, RH, QPF 12HR) to view state forecast maps






NWS 48 Hr. Forecast Maps,

Regional Hourly Observations For BARREN County, Kentucky
Issued at 100 PM EST TUE NOV 21 2017
WESTERN AND SOUTH CENTRAL KENTUCKY
  
CITY           SKY/WX    TMP DP  RH WIND       PRES   REMARKS
PADUCAH        MOSUNNY   57  32  38 S9        29.98F                  
HENDERSON      SUNNY     56  36  47 SW18      29.97F                  
OWENSBORO      SUNNY     56  34  43 SW20      29.98F                  
HOPKINSVILLE   CLOUDY    55  30  39 SW13      30.01F                  
BOWLING GREEN  SUNNY     57  31  37 S13       30.02F                  
GLASGOW        SUNNY     57  29  35 SW12G17   30.01F                  


Current NOWCAST not available:
Nowcasts are not issued routinely during fair weather. Only when
precipitation or other significant weather is occuring in this county will these
forecasts be issued. Currently, there is no short term forecast in effect.


Fire Weather Forecast For BARREN County, KY
Provided by the National Weather Service:

Issued at: Tue Nov 21 13:05:01 EST 2017

318 AM EST Tue Nov 21 2017 /218 AM CST Tue Nov 21 2017/

                      Today        Tonight      Wed          

CLOUD COVER           PCldy        MClear       MClear       
PRECIP TYPE           NONE         NONE         NONE         
CHANCE PRECIP (%)     0            0            0            
TEMP (24H TREND)      58 (+7)      29 (-6)      45           
RH % (24H TREND)      43 (+10)     84 (0)       45           
20FTWND-VAL/AM(MPH)   S  8                      N  6         
20FTWND-RDG/PM(MPH)   SW  7 G17    Lgt/Var      Lgt/Var      
PRECIP AMOUNT         0.00         0.00         0.00         
MIXING HGT(FT-AGL/MSL)2833                      3269         
TRANSPORT WND (MPH)   SW 13                     N  8         
VENT RATE (KT-FT)     41145                     23986        
DISPERSION            Fair                      Poor         
DSI                   STBL         SLGT UNSTBL  STBL         
LAL                   1            1            1            
HAINES INDEX          3            3            4            
ADI EARLY             37 FAIR      9 POOR       32 FAIR      
ADI LATE              50 GEN GOOD  28 FAIR      25 FAIR      
MAX LVORI EARLY       4            3            3            
MAX LVORI LATE        3            4            3            

REMARKS...ADI IS ATMOSPHERIC DISPERSION INDEX BY LAVDAS.        
LVORI IS LOW VISIBILITY OCCURRENCE RISK INDEX.

.THURSDAY...Mostly clear. Lows in the upper 20s. Highs in the
upper 40s. Light winds. 
.FRIDAY...Clear. Lows around 30. Highs in the mid 50s. Light
winds. 
.SATURDAY...Partly cloudy. Lows in the lower 40s. Highs in the
upper 50s. West winds 5 to 10 mph. 
.SUNDAY...Mostly clear. Colder. Lows in the lower 30s. Highs in
the mid 40s. Northwest winds 5 to 10 mph. 
.MONDAY...Mostly clear. Lows in the mid 20s. Highs in the mid
40s. Southwest winds up to 5 mph. 

SPC's Fire Weather Web Tool (Excellent!), SPC's Fire Weather Outlooks, NWS Fire Weather WEB, Fire Danger Class Map,
Keetch-Byram Drought Index, ROMAN Web, Haines Index ,
WFAS's 10-hr Dead Fuel Moist., WFAS's 100-hr Dead Fuel Moist., Probablity of Ignition, Visual blackness Map, Palmer Drought Index, HPC's Rainfall Forecast Maps


Hazardous Weather Outlook For BARREN County, Kentucky
147 PM EST Tue Nov 21 2017 /1247 PM CST Tue Nov 21 2017/

 DAY ONE  This Afternoon and Tonight.

No hazardous weather is expected at this time. 

 DAYS TWO THROUGH SEVEN  Wednesday through Monday.

No hazardous weather is expected at this time. 

 SPOTTER INFORMATION STATEMENT  

Spotter activation is not expected.

Latest BARREN County, Kentucky Watches, Warnings and Advisories.
Additional Drought Info.: UKAWC Drought Page, Kentucky Drought Watch


7-Day Forecast For BARREN County, KY

LATE THIS AFTERNOON
Mostly sunny. Southwest winds 5 to 15 mph.

TONIGHT
Partly cloudy. Lows in the lower 30s. West winds around 5 mph shifting to the north after midnight.

WEDNESDAY
Mostly sunny. Highs in the mid 40s. North winds 5 to 10 mph.

WEDNESDAY NIGHT
Clear. Lows in the mid 20s. North winds up to 5 mph.

THANKSGIVING DAY
Mostly sunny. Highs in the lower 50s. Southwest winds up to 5 mph.

THURSDAY NIGHT
Clear. Lows in the lower 30s. Southwest winds up to 5 mph.

FRIDAY
Sunny. Highs in the upper 50s.

FRIDAY NIGHT
Partly cloudy. Lows in the lower 40s.

SATURDAY
Mostly sunny. Highs in the upper 50s.

SATURDAY NIGHT
Mostly clear. Lows in the lower 30s.

SUNDAY
Mostly sunny. Highs in the mid 40s.

SUNDAY NIGHT
Mostly clear. Lows in the upper 20s.

MONDAY
Mostly sunny. Highs around 50.

MONDAY NIGHT
Mostly clear. Lows in the mid 30s.

TUESDAY
Mostly sunny. Highs in the upper 50s.

Ag Weather Center, Department of Biosystems & Agricultural Engineering, University of Kentucky